Location: Innsbruck
(47.2657°N, 11.3914°E)
Time: 07:55:04
(UTC+02:00)

Nauka - Pass Details

Date: 30 September 2021
Orbit: 418 x 423 km, 51.6° (Epoch: 15 October)

Event Time Altitude Azimuth Distance (km) Brightness Sun altitude
Rises 21:02:50 0° 294° (WNW) 2,368 ? -22.0°
Reaches altitude 10° 21:04:57 10° 291° (WNW) 1,502 ? -22.4°
Enters shadow 21:07:37 48° 264° (W) 555 ? -22.8°
